Notices

What's New in latest Release from April 7th, 2021:

- Updated Glossary, including Speed of Maximum Gust, and Total Hourly Precipitation

- Updated national and regional climate services offices contacts and prices information

- Addition of station inventory lists for 1981-2010, 1971-2000, and 1961-1990 Normals.

If you haven't already, please take our survey and provide feedback about our website: https://eccc.sondage-survey.ca/f/LanguageSelection.aspx?s=442ca660-fcf1-47c0-95a9-59707d6fd709

Hourly Data Report for March 11, 2020

MIRAMICHI RCS
NEW BRUNSWICK
Current Station Operator: ECCC - MSC

47°00'34.000" N
65°27'54.000" W
33.00 m
8100989
71744
ACQ

Download Data

Hourly Data (March 2020)
Hourly Data Report for March 11, 2020
TIME
LST
Temp Definition
°C
Dew Point Definition
°C
Rel Hum Definition
%
Precip. Amount Definition
mm

Wind Dir Definition
10's deg

Wind Spd Definition
km/h
Visibility Definition
km
Stn Press Definition
kPa
Hmdx Definition


Wind Chill Definition


Weather Definition


00:00 -3.8 -4.5 95 LegendMM 35 5   100.34   -6 LegendNANA
01:00 -3.7 -4.4 95 LegendMM 33 6   100.36   -6 LegendNANA
02:00 -4.4 -5.3 93 LegendMM 34 5   100.41   -7 LegendNANA
03:00 -4.9 -6.0 92 LegendMM 31 6   100.46   -8 LegendNANA
04:00 -4.6 -6.1 89 LegendMM 33 8   100.54   -8 LegendNANA
05:00 -4.9 -6.4 89 LegendMM 34 7   100.65   -8 LegendNANA
06:00 -5.7 -7.5 87 LegendMM 31 6   100.76   -9 LegendNANA
07:00 -7.2 -8.4 91 LegendMM 28 6   100.87   -10 LegendNANA
08:00 -6.1 -8.6 82 LegendMM 29 7   100.98   -9 LegendNANA
09:00 -4.4 -7.7 78 LegendMM 31 13   101.06   -9 LegendNANA
10:00 -3.5 -7.1 76 LegendMM 31 12   101.18   -8 LegendNANA
11:00 -3.3 -7.7 71 LegendMM 32 13   101.23   -8 LegendNANA
12:00 -2.5 -7.7 67 LegendMM 33 10   101.18   -6 LegendNANA
13:00 -2.2 -7.6 67 LegendMM 31 11   101.20   -6 LegendNANA
14:00 -1.6 -8.0 62 LegendMM 29 13   101.21   -6 LegendNANA
15:00 -1.2 -8.2 59 LegendMM 29 17   101.28   -6 LegendNANA
16:00 -0.7 -8.6 55 LegendMM 30 14   101.30   -5 LegendNANA
17:00 -1.4 -8.7 58 LegendMM 29 10   101.30   -5 LegendNANA
18:00 -1.8 -8.4 60 LegendMM 26 7   101.40   -4 LegendNANA
19:00 -2.4 -8.0 65 LegendMM 26 5   101.46   -4 LegendNANA
20:00 -3.5 -6.3 80 LegendMM 23 5   101.47   -6 LegendNANA
21:00 -2.9 -7.4 71 LegendMM 28 7   101.52   -6 LegendNANA
22:00 -3.4 -9.4 63 LegendMM 31 9   101.60   -7 LegendNANA
23:00 -4.9 -10.1 67 LegendMM 30 7   101.64   -8 LegendNANA

Notes on Data Quality.

Legend

  • E = Estimated
  • M = Missing
  • NA = Not Available*
  • [empty] = Indicates an unobserved value
Date modified: